• In Moldova, Republic
  • List of Countries
  • For 7 days
  • Water Temperature
  • Satellite Maps
  • Weather Map
  • Weather Widgets
  • user-avatar
    Login

    Hourly Weather Yulara

    Today, 21 January, Saturday

    Time Temperature Precipitation Wind Pressure Humidity
    00:00 +31°C° 0.5 mm 3 mps 713 mmHg 63%
    01:00 +31°C° 2.4 mm 3 mps 713 mmHg 64%
    02:00 +30°C° 2.4 mm 3 mps 713 mmHg 66%
    03:00 +30°C° 0 mm 3 mps 713 mmHg 68%
    04:00 +30°C° 1.8 mm 3 mps 713 mmHg 69%
    05:00 +29°C° 1.8 mm 3 mps 713 mmHg 70%
    06:00 +29°C° 1.8 mm 2 mps 713 mmHg 71%
    07:00 +30°C° 0 mm 2 mps 713 mmHg 67%
    08:00 +31°C° 0 mm 3 mps 714 mmHg 62%
    09:00 +33°C° 0 mm 3 mps 715 mmHg 57%
    10:00 +34°C° 0.1 mm 3 mps 714 mmHg 54%
    11:00 +35°C° 0.1 mm 3 mps 714 mmHg 50%
    12:00 +35°C° 0.1 mm 3 mps 714 mmHg 47%
    13:00 +36°C° 0.3 mm 3 mps 713 mmHg 45%
    14:00 +37°C° 0.3 mm 3 mps 713 mmHg 43%
    15:00 +37°C° 0 mm 3 mps 713 mmHg 42%
    16:00 +37°C° 0.3 mm 3 mps 713 mmHg 42%
    17:00 +37°C° 0.3 mm 3 mps 713 mmHg 43%
    18:00 +37°C° 0.3 mm 3 mps 713 mmHg 43%
    19:00 +36°C° 0.1 mm 3 mps 713 mmHg 45%
    20:00 +36°C° 0.1 mm 3 mps 713 mmHg 47%
    21:00 +35°C° 0.1 mm 2 mps 713 mmHg 49%
    22:00 +35°C° 0.7 mm 2 mps 714 mmHg 51%
    23:00 +34°C° 0.7 mm 2 mps 714 mmHg 53%

    Tomorrow, 22 January, Sunday

    Time Temperature Precipitation Wind Pressure Humidity
    00:00 +34°C° 0.7 mm 2 mps 714 mmHg 56%
    01:00 +32°C° 0.6 mm 2 mps 714 mmHg 58%
    02:00 +32°C° 0.6 mm 2 mps 713 mmHg 60%
    03:00 +31°C° 0.6 mm 2 mps 713 mmHg 62%
    04:00 +31°C° 0 mm 2 mps 713 mmHg 64%
    05:00 +30°C° 0 mm 2 mps 714 mmHg 65%
    06:00 +30°C° 0 mm 1 mps 714 mmHg 67%
    07:00 +31°C° 0 mm 1 mps 714 mmHg 62%
    08:00 +32°C° 0 mm 1 mps 714 mmHg 57%
    09:00 +33°C° 0 mm 1 mps 714 mmHg 53%
    10:00 +35°C° 0 mm 2 mps 714 mmHg 49%
    11:00 +36°C° 0 mm 2 mps 714 mmHg 45%
    12:00 +37°C° 0 mm 2 mps 714 mmHg 41%
    13:00 +37°C° 0.2 mm 3 mps 713 mmHg 40%
    14:00 +38°C° 0.2 mm 3 mps 713 mmHg 39%
    15:00 +38°C° 0.2 mm 3 mps 712 mmHg 38%
    16:00 +38°C° 0 mm 3 mps 712 mmHg 38%
    17:00 +38°C° 0 mm 3 mps 712 mmHg 38%
    18:00 +38°C° 0 mm 3 mps 712 mmHg 38%
    19:00 +37°C° 0 mm 2 mps 713 mmHg 40%
    20:00 +37°C° 0 mm 2 mps 713 mmHg 42%
    21:00 +36°C° 0 mm 2 mps 713 mmHg 44%
    22:00 +36°C° 0.2 mm 2 mps 713 mmHg 46%
    23:00 +35°C° 0.2 mm 2 mps 713 mmHg 49%

    Day after tomorrow, 23 January, Monday

    Time Temperature Precipitation Wind Pressure Humidity
    00:00 +34°C° 0.2 mm 2 mps 713 mmHg 51%
    01:00 +33°C° 0.1 mm 4 mps 713 mmHg 54%
    02:00 +33°C° 0.1 mm 5 mps 712 mmHg 58%
    03:00 +32°C° 0.1 mm 6 mps 712 mmHg 61%
    04:00 +32°C° 0.1 mm 5 mps 712 mmHg 62%
    05:00 +30°C° 0.1 mm 4 mps 712 mmHg 63%
    06:00 +30°C° 0.1 mm 3 mps 713 mmHg 64%
    07:00 +32°C° 0 mm 4 mps 713 mmHg 60%
    08:00 +33°C° 0 mm 5 mps 714 mmHg 56%
    09:00 +34°C° 0 mm 6 mps 714 mmHg 52%
    10:00 +35°C° 0.1 mm 6 mps 714 mmHg 49%
    11:00 +36°C° 0.1 mm 5 mps 714 mmHg 46%
    12:00 +37°C° 0.1 mm 5 mps 714 mmHg 43%
    13:00 +37°C° 0 mm 5 mps 713 mmHg 42%
    14:00 +37°C° 0 mm 5 mps 713 mmHg 41%
    15:00 +37°C° 0 mm 5 mps 713 mmHg 40%
    16:00 +36°C° 0 mm 4 mps 713 mmHg 42%
    17:00 +36°C° 0 mm 4 mps 713 mmHg 43%
    18:00 +35°C° 0 mm 4 mps 713 mmHg 45%
    19:00 +35°C° 0 mm 3 mps 713 mmHg 46%
    20:00 +34°C° 0 mm 2 mps 714 mmHg 48%
    21:00 +34°C° 0 mm 2 mps 714 mmHg 49%
    22:00 +34°C° 0 mm 2 mps 714 mmHg 50%
    23:00 +32°C° 0 mm 2 mps 714 mmHg 51%

    24 January, Tuesday

    Time Temperature Precipitation Wind Pressure Humidity
    00:00 +32°C° 0 mm 2 mps 714 mmHg 52%
    01:00 +31°C° 0.1 mm 2 mps 714 mmHg 55%
    02:00 +31°C° 0.1 mm 2 mps 714 mmHg 57%
    03:00 +30°C° 0.1 mm 2 mps 714 mmHg 59%
    04:00 +30°C° 0.1 mm 3 mps 714 mmHg 63%
    05:00 +29°C° 0.1 mm 5 mps 714 mmHg 67%
    06:00 +29°C° 0.1 mm 6 mps 715 mmHg 71%
    07:00 +29°C° 1 mm 7 mps 715 mmHg 69%
    08:00 +31°C° 1 mm 8 mps 716 mmHg 67%
    09:00 +31°C° 1 mm 9 mps 717 mmHg 65%
    10:00 +32°C° 0.1 mm 9 mps 717 mmHg 61%
    11:00 +33°C° 0.1 mm 9 mps 717 mmHg 57%
    12:00 +34°C° 0.1 mm 8 mps 717 mmHg 53%
    13:00 +34°C° 0 mm 8 mps 716 mmHg 51%
    14:00 +35°C° 0 mm 8 mps 716 mmHg 49%
    15:00 +35°C° 0 mm 7 mps 715 mmHg 47%
    16:00 +34°C° 0.1 mm 7 mps 716 mmHg 48%
    17:00 +34°C° 0.1 mm 7 mps 716 mmHg 49%
    18:00 +33°C° 0.1 mm 7 mps 716 mmHg 50%
    19:00 +33°C° 0.2 mm 7 mps 717 mmHg 52%
    20:00 +32°C° 0.2 mm 6 mps 717 mmHg 55%
    21:00 +30°C° 0.2 mm 6 mps 718 mmHg 57%
    22:00 +30°C° 0 mm 6 mps 718 mmHg 58%
    23:00 +29°C° 0 mm 6 mps 718 mmHg 58%

    25 January, Wednesday

    Time Temperature Precipitation Wind Pressure Humidity
    00:00 +29°C° 0 mm 5 mps 718 mmHg 59%
    01:00 +29°C° 0.1 mm 6 mps 717 mmHg 59%
    02:00 +28°C° 0.1 mm 6 mps 717 mmHg 58%
    03:00 +28°C° 0.1 mm 6 mps 717 mmHg 58%
    04:00 +28°C° 0 mm 6 mps 717 mmHg 58%
    05:00 +27°C° 0 mm 6 mps 718 mmHg 58%
    06:00 +27°C° 0 mm 5 mps 718 mmHg 58%
    07:00 +28°C° 0 mm 6 mps 718 mmHg 56%
    08:00 +28°C° 0 mm 7 mps 719 mmHg 54%
    09:00 +29°C° 0 mm 7 mps 719 mmHg 52%
    10:00 +30°C° 0 mm 7 mps 719 mmHg 49%
    11:00 +32°C° 0 mm 7 mps 718 mmHg 47%
    12:00 +33°C° 0 mm 7 mps 718 mmHg 44%
    13:00 +34°C° 0 mm 7 mps 718 mmHg 45%
    14:00 +34°C° 0 mm 7 mps 717 mmHg 45%
    15:00 +34°C° 0 mm 7 mps 716 mmHg 45%
    16:00 +34°C° 0 mm 7 mps 717 mmHg 45%
    17:00 +34°C° 0 mm 7 mps 717 mmHg 44%
    18:00 +34°C° 0 mm 7 mps 717 mmHg 44%
    19:00 +34°C° 0.2 mm 6 mps 717 mmHg 46%
    20:00 +33°C° 0.2 mm 5 mps 717 mmHg 49%
    21:00 +33°C° 0.2 mm 5 mps 718 mmHg 51%
    22:00 +32°C° 0.3 mm 5 mps 718 mmHg 53%
    23:00 +32°C° 0.3 mm 5 mps 717 mmHg 55%

    26 January, Thursday

    Time Temperature Precipitation Wind Pressure Humidity
    00:00 +30°C° 0.3 mm 5 mps 717 mmHg 56%
    01:00 +30°C° 0.3 mm 5 mps 717 mmHg 58%
    02:00 +29°C° 0.3 mm 6 mps 717 mmHg 59%
    03:00 +28°C° 0.3 mm 7 mps 717 mmHg 60%
    04:00 +28°C° 0 mm 7 mps 717 mmHg 60%
    05:00 +28°C° 0 mm 6 mps 717 mmHg 60%
    06:00 +27°C° 0 mm 6 mps 717 mmHg 60%
    07:00 +29°C° 0 mm 7 mps 718 mmHg 56%
    08:00 +30°C° 0 mm 7 mps 718 mmHg 52%
    09:00 +32°C° 0 mm 8 mps 718 mmHg 49%
    10:00 +33°C° 0 mm 8 mps 718 mmHg 45%
    11:00 +35°C° 0 mm 7 mps 718 mmHg 42%
    12:00 +36°C° 0 mm 7 mps 717 mmHg 39%
    13:00 +38°C° 0 mm 6 mps 717 mmHg 37%
    14:00 +38°C° 0 mm 6 mps 716 mmHg 35%
    15:00 +39°C° 0 mm 6 mps 715 mmHg 33%
    16:00 +39°C° 0 mm 6 mps 716 mmHg 33%
    17:00 +39°C° 0 mm 6 mps 716 mmHg 33%
    18:00 +39°C° 0 mm 6 mps 716 mmHg 32%
    19:00 +37°C° 0 mm 5 mps 716 mmHg 34%
    20:00 +36°C° 0 mm 5 mps 716 mmHg 37%
    21:00 +35°C° 0 mm 4 mps 717 mmHg 39%
    22:00 +34°C° 0 mm 4 mps 716 mmHg 40%
    23:00 +34°C° 0 mm 4 mps 716 mmHg 42%
    Show more